Regional Weather Roundup
Issued by NWS

Home | Current Version | Previous Version | Text Only | Print | Product List | Glossary On
Versions: 1 2 3 4 5 6 7 8 9 10 11 12 13 14 15 16 17 18 19 20 21 22 23 24 25 26 27 28 29 30 31 32 33 34 35 36 37 38 39 40 41 42 43 44 45 46 47 48 49 50
765
ASUS43 KMPX 250810
RWRMN
WEATHER ROUNDUP FOR MINNESOTA
NATIONAL WEATHER SERVICE TWIN CITIES/CHANHASSEN MN
300 AM CDT SAT MAR 25 2017


NOTE: "FAIR" INDICATES FEW OR NO CLOUDS BELOW 12,000 FEET WITH NO
SIGNIFICANT WEATHER AND/OR OBSTRUCTIONS TO VISIBILITY. N/A MEANS
CURRENT SKY AND/OR WEATHER CONDITIONS ARE NOT AVAILABLE.

MNZ060>063-068>070-250900-
   Twin Cities Metro

CITY           SKY/WX    TMP DP  RH WIND       PRES   REMARKS
TWIN CITIES    CLOUDY    38  31  76 NE12      30.17F
ST PAUL        CLOUDY    38  32  79 NE10      30.19S
CRYSTAL        CLOUDY    37  29  72 NE8       30.17S
BLAINE         CLOUDY    37  34  87 NE10      30.18S
LAKEVILLE      CLOUDY    36  34  93 NE9       30.15F
EDEN PRAIRIE   CLOUDY    39  32  76 NE13      30.15F
SOUTH ST PAUL  CLOUDY    38  32  78 E7        30.17F
LAKE ELMO      CLOUDY    36  32  87 NE8       30.18F
$$
MNZ001>005-007-008-013>017-022>024-027-028-250900-
   Northwest Minnesota

CITY           SKY/WX    TMP DP  RH WIND       PRES   REMARKS
BEMIDJI        CLOUDY    33  29  86 SE5       30.22S WCI  29
HALLOCK        CLEAR     28  27  93 CALM      30.21S
ROSEAU         CLOUDY    28  25  86 SE5       30.22F WCI  23
WARROAD        CLOUDY    28  25  86 SE5       30.24R WCI  23
THIEF RVR FALL CLEAR    N/A N/A N/A SE9       30.22S
CROOKSTON      CLEAR     30  28  93 SE8       30.22F WCI  23
FOSSTON        CLEAR     25  25 100 CALM      30.22S
DETROIT LAKES  CLOUDY    34  30  86 SE7       30.20F WCI  28
MOORHEAD       CLEAR     28  27  93 E3        30.21F
PARK RAPIDS    CLOUDY    36  27  69 SE6       30.20F
MAHNOMEN       FAIR      31  28  87 SE5       30.21S WCI  26
$$
MNZ006-009>011-018-025>026-250900-
   North Central Minnesota

CITY           SKY/WX    TMP DP  RH WIND       PRES   REMARKS
BAUDETTE       CLEAR     28  24  85 E7        30.23S WCI  21
FLAG ISLAND    CLOUDY    30  25  80 E6        30.23S WCI  24
INTL FALLS     CLOUDY    33  27  78 E6        30.25R WCI  28
WASKISH        CLOUDY    32  28  86 CALM      30.24S
BIG FORK       CLOUDY    34  28  80 SE3       30.25R
LONGVILLE      CLOUDY    34  30  86 CALM      30.22F
GRAND RAPIDS   CLOUDY    33  31  92 CALM      30.26S
CRANE LAKE     CLOUDY    32  28  86 CALM      30.28S
ORR            CLOUDY    34  28  80 CALM      30.23S
COOK           CLOUDY    34  30  86 SE3       30.26S
WALKER         CLOUDY    33  30  87 CALM      30.22F
$$
MNZ012-019>021-037-250900-
   Northeast Minnesota

CITY           SKY/WX    TMP DP  RH WIND       PRES   REMARKS
DULUTH         CLOUDY    33  31  92 E12       30.23F WCI  24
ELY            CLOUDY    30  28  93 SE5       30.27S WCI  25
HIBBING        CLOUDY    32  30  92 E5        30.25S WCI  27
EVELETH        CLOUDY    32  29  88 E3        30.26F
DULUTH HARBOR  CLOUDY    36  34  93 NE15      30.27F
TWO HARBORS    CLOUDY    36  30  80 NE7       30.25F
SILVER BAY     CLOUDY    34  30  86 NE6       30.26F WCI  29
GRAND MARAIS     N/A     34  24  67 NE9       30.32R WCI  27
G MARAIS ARPRT CLOUDY    28  19  69 NE6       30.28R WCI  22
$$
MNZ029>031-032-039>041-046>048-054>057-064-250900-
   West Central Minnesota

CITY           SKY/WX    TMP DP  RH WIND       PRES   REMARKS
FERGUS FALLS   CLEAR     28  28 100 E3        30.23F
WHEATON        CLEAR     27  27 100 CALM      30.21F FOG
MORRIS         CLOUDY    36  32  87 E6        30.17S
ALEXANDRIA     MOCLDY    32  29  88 E8        30.19S WCI  25
ELBOW LAKE     MOCLDY    33  30  88 NE7       30.19F WCI  27
WADENA         CLOUDY    36  28  75 E6        30.20F
GLENWOOD       CLOUDY    36  30  80 E13       30.18R
APPLETON       CLOUDY    36  32  87 CALM      30.17F
BENSON         CLOUDY    39  28  65 E7        30.19S
ORTONVILLE     CLOUDY    30  28  93 NE3       30.18R
MADISON        CLOUDY    37  36  93 E6        30.17F
WILLMAR        CLOUDY    37  34  87 E12       30.18S
$$
MNZ033>034-036-042>043-049>051-058-059-250900-
   Central Minnesota

CITY           SKY/WX    TMP DP  RH WIND       PRES   REMARKS
ST CLOUD       CLOUDY    35  31  85 NE7       30.20R WCI  29
SAUK CENTRE    CLOUDY    34  30  87 E10       30.19R WCI  26
PAYNESVILLE      N/A     36  32  85 E7        30.18S
AITKIN         CLOUDY    36  30  80 E5        30.21F
PINE RIVER     CLOUDY    36  30  80 CALM      30.25S
BRAINERD       CLOUDY    34  31  88 NE6       30.22F WCI  29
STAPLES        CLOUDY    36  28  75 E5        30.21S
LONG PRAIRIE   CLOUDY    32  30  93 NE7       30.20R WCI  26
LITTLE FALLS   CLOUDY    32  30  93 E5        30.21S WCI  27
LITCHFIELD     CLOUDY    37  34  87 E9        30.17F
BUFFALO        CLOUDY    36  31  82 NE7       30.19S
MAPLE LAKE     CLOUDY    37  33  85 NE6       30.19F
HUTCHINSON     CLOUDY    37  34  90 NE8       30.17F
$$
MNZ037-044-045-052-053-250900-
   East Central Minnesota

CITY           SKY/WX    TMP DP  RH WIND       PRES   REMARKS
PRINCETON      CLOUDY    37  30  75 NE7       30.21R
MORA           CLOUDY    32  30  93 NE5       30.24S WCI  27
CAMBRIDGE      CLOUDY    37  30  75 NE3       30.20R
RUSH CITY      CLOUDY    35  30  82 NE7       30.22R WCI  29
MOOSE LAKE     CLOUDY    34  32  93 NE5       30.22S WCI  30
HINCKLEY       CLOUDY    34  32  93 NE7       30.23S WCI  28
CLOQUET        CLOUDY    34  30  86 NE7       30.24F WCI  28
MCGREGOR       CLOUDY    34  32  93 E5        30.23F WCI  30
$$
MNZ071>073-080-081-089-090-097-098-250900-
   Southwest Minnesota

CITY           SKY/WX    TMP DP  RH WIND       PRES   REMARKS
MONTEVIDEO     CLOUDY    36  34  93 E8        30.18F
GRANITE FALLS  CLOUDY    38  33  83 NE9       30.17F
CANBY          CLOUDY    35  33  94 CALM      30.17S
MARSHALL       CLOUDY    35  32  88 E14       30.14F WCI  26
REDWOOD FALLS  CLOUDY    37  31  78 NE9       30.15F
OLIVIA         CLOUDY    36  32  87 E7        30.15F
PIPESTONE      CLOUDY    34  30  86 E9G18     30.09S FOG     WCI  26
WINDOM         CLOUDY    36  36 100 N15G23    30.09F
WORTHINGTON    CLOUDY    35  34  96 NE21      30.07F FOG     WCI  24
JACKSON        CLOUDY    36  36 100 NE16G22   30.07F FOG
TRACY          CLOUDY    36  34  94 NE8       30.13F
SLAYTON        CLOUDY    33  32  98 NE12G18   30.11S FOG     WCI  24
$$
MNZ065>067-074>077-082>085-091>093-250900-
   South Central Minnesota

CITY           SKY/WX    TMP DP  RH WIND       PRES   REMARKS
MANKATO        CLOUDY    37  34  89 NE14      30.13S
NEW ULM        CLOUDY    37  34  87 NE6       30.13F
ST JAMES       CLOUDY    37  36  93 N14       30.12F
FAIRMONT       CLOUDY    38  35  89 NE15      30.08F
GLENCOE        CLOUDY    37  35  92 NE5       30.15F
FARIBAULT      CLOUDY    37  34  87 N10G17    30.12F
OWATONNA       CLOUDY    37  34  87 NE13G18   30.10F
WASECA         CLOUDY    36  34  93 N15G21    30.10F
ALBERT LEA     CLOUDY    37  36  93 NE13G18   30.07S FOG
$$
MNZ078>079-086>088-094>096-250900-
   Southeast Minnesota

CITY           SKY/WX    TMP DP  RH WIND       PRES   REMARKS
ROCHESTER      CLOUDY    37  36  96 NE14      30.08F
RED WING       CLOUDY    39  32  75 E7        30.15S
STANTON        CLOUDY    38  34  86 NE12      30.13F
DODGE CENTER   CLOUDY    36  36 100 NE12G17   30.08F FOG
WINONA         CLOUDY    37  36  93 E8        30.14S
AUSTIN         CLOUDY    37  36  93 NE14G21   30.06F
PRESTON        CLOUDY    36  34  93 NE9G17    30.07F
$$
ABBREVIATIONS USED IN REMARKS
   TC - TEMPERATURES IN CELSIUS
  WCI - WIND CHILL INDEX
   HX - HEAT INDEX
  VSB - VISIBILITY
$$




USA.gov is the U.S. government's official web portal to all federal, state and local government web resources and services.